GW3011 Weather Reports


time (UTC)temp
F
wind
direction
speed
knots
gust
knots
rain 1hr
in
rain 24hr
in
rain mn
in
humidity
%
barometer
mb
20260503022550 55 295 0.9 1.7 0.00 0.00 0.00 39 1010.3
20260503022045 55 319 1.7 2.6 0.00 0.00 0.00 37 1010.3
20260503021542 55 298 1.7 2.6 0.00 0.00 0.00 37 1010.2
20260503021039 55 307 2.6 3.5 0.00 0.00 0.00 37 1010.3
20260503020536 55 299 2.6 2.6 0.00 0.00 0.00 38 1010.3
20260503020033 55 328 1.7 2.6 0.00 0.00 0.00 38 1010.2
20260503015529 55 306 1.7 2.6 0.00 0.00 0.00 37 1010.4
20260503015027 55 330 2.6 3.5 0.00 0.00 0.00 37 1010.4
20260503014523 56 311 3.5 3.5 0.00 0.00 0.00 37 1010.5
20260503014021 56 300 3.5 3.5 0.00 0.00 0.00 37 1010.5
20260503013518 56 294 4.3 6.1 0.00 0.00 0.00 37 1010.2
20260503013016 56 256 3.5 3.5 0.00 0.00 0.00 37 1010.2
20260503012513 56 280 4.3 7.0 0.00 0.00 0.00 38 1010.1
20260503012009 56 290 0.9 1.7 0.00 0.00 0.00 38 1010.2
20260503011506 56 283 1.7 1.7 0.00 0.00 0.00 38 1010.2
20260503011003 56 285 0.9 1.7 0.00 0.00 0.00 37 1010.4
20260503010459 56 307 1.7 1.7 0.00 0.00 0.00 38 1010.0
20260503005957 57 309 1.7 2.6 0.00 0.00 0.00 37 1010.2
20260503005454 57 294 2.6 3.5 0.00 0.00 0.00 37 1010.0
20260503004950 57 333 3.5 5.2 0.00 0.00 0.00 37 1009.9
20260503004447 57 316 0.9 0.9 0.00 0.00 0.00 37 1009.9
20260503003945 57 298 2.6 2.6 0.00 0.00 0.00 37 1009.7
20260503003441 57 327 1.7 1.7 0.00 0.00 0.00 38 1009.8
20260503002938 57 267 2.6 3.5 0.00 0.00 0.00 37 1009.4
20260503002436 57 165 4.3 7.0 0.00 0.00 0.00 38 1009.7
20260503001932 57 320 4.3 5.2 0.00 0.00 0.00 37 1009.5
20260503001429 58 295 1.7 2.6 0.00 0.00 0.00 37 1009.6
20260503000926 58 287 4.3 5.2 0.00 0.00 0.00 36 1009.5
20260503000423 58 287 2.6 2.6 0.00 0.00 0.00 36 1009.4
20260502235920 58 274 1.7 1.7 0.00 0.00 0.00 36 1009.5
20260502235417 58 304 2.6 3.5 0.00 0.00 0.00 36 1009.6
20260502234915 58 300 2.6 3.5 0.00 0.00 0.00 36 1009.4
20260502234411 58 266 1.7 2.6 0.00 0.00 0.00 37 1009.6
20260502233908 59 227 3.5 3.5 0.00 0.00 0.00 38 1009.5
20260502233403 59 298 0.9 0.9 0.00 0.00 0.00 36 1009.6
20260502232901 59 316 1.7 2.6 0.00 0.00 0.00 37 1009.4
20260502232357 59 278 1.7 2.6 0.00 0.00 0.00 36 1009.6
20260502231854 59 300 1.7 1.7 0.00 0.00 0.00 36 1009.2
20260502231352 59 277 2.6 2.6 0.00 0.00 0.00 36 1009.3
20260502230850 59 271 2.6 2.6 0.00 0.00 0.00 36 1009.2
20260502230348 60 302 0.9 1.7 0.00 0.00 0.00 36 1009.1
20260502225844 60 300 1.7 2.6 0.00 0.00 0.00 35 1009.3
20260502225340 59 293 1.7 2.6 0.00 0.00 0.00 36 1009.3
20260502224838 60 304 1.7 2.6 0.00 0.00 0.00 35 1009.0
20260502224334 59 301 0.9 0.9 0.00 0.00 0.00 37 1008.9
20260502223831 59 284 1.7 2.6 0.00 0.00 0.00 37 1009.1
20260502223329 59 293 1.7 1.7 0.00 0.00 0.00 37 1009.0
20260502222827 60 303 1.7 1.7 0.00 0.00 0.00 38 1009.1
20260502222324 60 252 2.6 3.5 0.00 0.00 0.00 38 1009.0
20260502221820 60 325 0.0 0.9 0.00 0.00 0.00 39 1009.2
20260502221316 61 242 1.7 2.6 0.00 0.00 0.00 38 1009.0
20260502220814 60 286 0.9 1.7 0.00 0.00 0.00 36 1009.1
20260502220309 61 256 2.6 2.6 0.00 0.00 0.00 35 1009.2
20260502215806 62 285 0.9 1.7 0.00 0.00 0.00 36 1009.1
20260502215305 61 309 0.0 0.0 0.00 0.00 0.00 35 1009.2
20260502214800 60 289 1.7 1.7 0.00 0.00 0.00 35 1009.2
20260502214256 60 299 1.7 1.7 0.00 0.00 0.00 35 1009.1
20260502213754 60 276 0.9 0.9 0.00 0.00 0.00 38 1009.1
20260502213251 61 302 0.9 1.7 0.00 0.00 0.00 35 1009.2
20260502212750 61 319 3.5 5.2 0.00 0.00 0.00 35 1009.0
20260502212248 60 288 5.2 6.1 0.00 0.00 0.00 35 1009.1
20260502211743 61 287 3.5 5.2 0.00 0.00 0.00 35 1008.8
20260502211241 61 305 0.0 0.0 0.00 0.00 0.00 36 1008.7
20260502210738 61 201 2.6 5.2 0.00 0.00 0.00 35 1008.9
20260502210235 61 294 3.5 3.5 0.00 0.00 0.00 35 1008.8
20260502205732 62 293 1.7 2.6 0.00 0.00 0.00 36 1009.0
20260502205228 60 284 1.7 1.7 0.00 0.00 0.00 37 1008.8
20260502204726 60 269 1.7 1.7 0.00 0.00 0.00 38 1008.7
20260502204223 61 200 2.6 3.5 0.00 0.00 0.00 37 1009.0
20260502203721 62 260 1.7 1.7 0.00 0.00 0.00 37 1008.9
20260502203218 62 299 0.9 0.9 0.00 0.00 0.00 37 1008.8
20260502202712 61 301 1.7 1.7 0.00 0.00 0.00 37 1008.9
20260502202211 60 290 0.9 1.7 0.00 0.00 0.00 39 1009.1
20260502201708 60 288 0.9 1.7 0.00 0.00 0.00 39 1008.9
20260502201204 62 297 0.9 0.9 0.00 0.00 0.00 38 1009.1
20260502200700 63 272 3.5 3.5 0.00 0.00 0.00 36 1009.4
20260502200156 63 307 0.9 0.9 0.00 0.00 0.00 37 1009.3
20260502195655 62 244 3.5 3.5 0.00 0.00 0.00 38 1009.2
20260502195151 62 305 1.7 2.6 0.00 0.00 0.00 40 1009.3
20260502194648 62 318 1.7 1.7 0.00 0.00 0.00 40 1009.5
20260502194144 62 283 3.5 3.5 0.00 0.00 0.00 41 1009.7
20260502193641 60 299 1.7 2.6 0.00 0.00 0.00 43 1009.7
20260502193138 60 293 1.7 1.7 0.00 0.00 0.00 44 1009.7
20260502192633 61 283 2.6 2.6 0.00 0.00 0.00 42 1009.8
20260502192131 61 191 2.6 5.2 0.00 0.00 0.00 44 1009.9
20260502191628 61 314 1.7 3.5 0.00 0.00 0.00 44 1010.1
20260502191125 62 259 1.7 1.7 0.00 0.00 0.00 43 1010.1
20260502190623 61 277 1.7 2.6 0.00 0.00 0.00 43 1010.1
20260502190120 61 311 0.9 1.7 0.00 0.00 0.00 44 1010.3
20260502185615 62 280 1.7 2.6 0.00 0.00 0.00 44 1010.1
20260502185112 62 272 0.9 0.9 0.00 0.00 0.00 44 1010.1
20260502184608 62 283 0.9 0.9 0.00 0.00 0.00 44 1010.4
20260502184103 62 278 4.3 5.2 0.00 0.00 0.00 44 1010.3
20260502183600 61 345 0.9 1.7 0.00 0.00 0.00 46 1010.5
20260502183056 61 186 2.6 3.5 0.00 0.00 0.00 46 1010.5
20260502182552 60 253 3.5 5.2 0.00 0.00 0.00 47 1010.4
20260502182048 60 89 4.3 6.1 0.00 0.00 0.00 46 1010.4
20260502181546 61 221 2.6 5.2 0.00 0.00 0.00 47 1010.2
20260502181044 62 187 3.5 6.1 0.00 0.00 0.00 46 1010.7
20260502180540 60 289 0.9 1.7 0.00 0.00 0.00 48 1010.4
20260502170454 60 138 0.9 1.7 0.00 0.00 0.00 52 1010.8
20260502163937 59 253 2.6 3.5 0.00 0.00 0.00 55 1011.5
20260502163433 58 312 0.0 0.9 0.00 0.00 0.00 58 1011.1
20260502162931 58 289 0.9 1.7 0.00 0.00 0.00 58 1011.4
20260502162428 58 270 2.6 2.6 0.00 0.00 0.00 58 1011.4
20260502161925 58 229 0.9 0.9 0.00 0.00 0.00 61 1011.4
20260502161421 56 290 1.7 2.6 0.00 0.00 0.00 63 1011.3
20260502160919 56 318 2.6 3.5 0.00 0.00 0.00 64 1011.2
20260502160417 55 281 1.7 2.6 0.00 0.00 0.00 67 1011.2
20260502151855 55 303 0.9 1.7 0.00 0.00 0.00 68 1011.4
20260502151351 55 298 1.7 1.7 0.00 0.00 0.00 67 1011.3
20260502150849 56 291 0.9 1.7 0.00 0.00 0.00 68 1011.4
20260502150345 55 277 1.7 1.7 0.00 0.00 0.00 69 1011.5
20260502130734 53 240 2.6 3.5 0.00 0.00 0.00 75 1011.6
20260502130231 53 299 0.0 0.9 0.00 0.00 0.00 78 1011.6
20260502123717 53 283 0.9 0.9 0.00 0.00 0.00 76 1011.8
20260502123214 54 280 0.0 0.0 0.00 0.00 0.00 77 1011.6
20260502122710 53 256 0.9 1.7 0.00 0.00 0.00 78 1011.5
20260502122207 53 298 0.9 0.9 0.00 0.00 0.00 78 1011.4
20260502121705 54 242 1.7 1.7 0.00 0.00 0.00 77 1011.3
20260502121203 53 307 0.0 0.0 0.00 0.00 0.00 77 1011.3
20260502120659 54 291 0.0 0.0 0.00 0.00 0.00 76 1011.5
20260502120156 53 244 0.9 1.7 0.00 0.00 0.00 76 1011.5
20260502115654 53 305 0.0 0.0 0.00 0.00 0.00 76 1011.3
20260502115150 53 309 0.0 0.0 0.00 0.00 0.00 79 1011.1
20260502114646 53 307 0.0 0.0 0.00 0.00 0.00 77 1011.3
20260502114143 53 305 0.0 0.0 0.00 0.00 0.00 80 1011.5
20260502113641 53 305 0.0 0.0 0.00 0.00 0.00 77 1011.3
20260502113139 53 295 0.0 0.0 0.00 0.00 0.00 77 1011.5
20260502112636 53 305 0.0 0.0 0.00 0.00 0.00 80 1011.3
20260502112133 53 302 0.0 0.0 0.00 0.00 0.00 82 1011.2
20260502111631 53 300 0.0 0.0 0.00 0.00 0.00 81 1011.3
20260502111128 53 284 0.0 0.9 0.00 0.00 0.00 83 1011.2
20260502110626 53 306 0.0 0.0 0.00 0.00 0.00 82 1011.1
20260502110123 53 302 0.0 0.0 0.00 0.00 0.00 83 1011.0
20260502105621 52 301 0.0 0.0 0.00 0.00 0.00 83 1011.1
20260502105117 52 306 0.0 0.0 0.00 0.00 0.00 84 1011.1
20260502104615 52 307 0.0 0.0 0.00 0.00 0.00 85 1011.1
20260502104112 51 309 0.0 0.0 0.00 0.00 0.00 84 1010.6
20260502103609 51 305 0.0 0.0 0.00 0.00 0.00 84 1010.5
20260502103108 51 306 0.0 0.0 0.00 0.00 0.00 85 1010.6
20260502102604 51 306 0.0 0.0 0.00 0.00 0.00 85 1010.7
20260502102101 51 299 0.0 0.0 0.00 0.00 0.00 87 1010.6
20260502101559 51 308 0.0 0.0 0.00 0.00 0.00 87 1010.4
20260502101057 51 305 0.0 0.0 0.00 0.00 0.00 87 1010.5
20260502100555 51 305 0.0 0.0 0.00 0.00 0.00 86 1010.6
20260502091530 52 219 0.9 2.6 0.00 0.00 0.00 81 1010.9
20260502091027 52 318 0.0 0.9 0.00 0.00 0.00 82 1010.9
20260502090524 52 243 1.7 2.6 0.00 0.00 0.00 81 1011.0
20260502071419 53 253 2.6 2.6 0.00 0.00 0.00 74 1010.8
20260502070916 53 198 0.9 1.7 0.00 0.00 0.00 74 1010.9
20260502070414 53 301 3.5 5.2 0.00 0.00 0.00 73 1010.7
20260502065912 53 307 1.7 1.7 0.00 0.00 0.00 73 1010.7
20260502065411 53 154 4.3 5.2 0.00 0.00 0.00 72 1010.6
20260502064908 54 305 0.9 2.6 0.00 0.00 0.00 71 1010.7
20260502064406 54 118 3.5 3.5 0.00 0.00 0.00 71 1011.0
20260502063903 54 296 0.9 0.9 0.00 0.00 0.00 70 1011.0
20260502063400 54 120 3.5 6.1 0.00 0.00 0.00 70 1011.0
20260502062858 54 260 1.7 1.7 0.00 0.00 0.00 70 1010.8
20260502062355 54 197 3.5 3.5 0.00 0.00 0.00 69 1011.2
20260502061854 54 202 1.7 1.7 0.00 0.00 0.00 69 1011.2
20260502061351 54 262 1.7 2.6 0.00 0.00 0.00 69 1011.2
20260502060847 54 251 0.9 1.7 0.00 0.00 0.00 70 1011.3
20260502060342 54 182 1.7 3.5 0.00 0.00 0.00 69 1011.3
20260502055840 54 180 4.3 7.8 0.00 0.00 0.00 68 1011.1
20260502055338 55 234 1.7 2.6 0.00 0.00 0.00 68 1011.0
20260502054837 55 200 0.9 1.7 0.00 0.00 0.00 68 1011.0
20260502054334 55 198 0.9 1.7 0.00 0.00 0.00 68 1011.1
20260502053831 55 195 2.6 3.5 0.00 0.00 0.00 67 1010.9
20260502053329 55 323 0.9 1.7 0.00 0.00 0.00 66 1011.0
20260502052826 55 107 4.3 6.1 0.00 0.00 0.00 66 1011.1
20260502052324 55 192 3.5 5.2 0.00 0.00 0.00 65 1011.0
20260502051821 55 195 1.7 3.5 0.00 0.00 0.00 66 1011.2
20260502051321 55 169 2.6 2.6 0.00 0.00 0.00 66 1011.1
20260502050816 55 177 2.6 5.2 0.00 0.00 0.00 66 1011.1
20260502050313 55 329 2.6 3.5 0.00 0.00 0.00 66 1010.9
20260502045810 55 207 1.7 1.7 0.00 0.00 0.00 66 1010.9
20260502045306 55 191 3.5 5.2 0.00 0.00 0.00 66 1011.2
20260502044804 55 244 1.7 2.6 0.00 0.00 0.00 66 1010.9
20260502044259 55 298 0.9 1.7 0.00 0.00 0.00 66 1010.7
20260502043757 55 245 0.9 1.7 0.00 0.00 0.00 66 1010.8
20260502043254 55 287 1.7 1.7 0.00 0.00 0.00 67 1010.9
20260502042754 55 171 2.6 2.6 0.00 0.00 0.00 66 1011.1
20260502042251 55 144 3.5 5.2 0.00 0.00 0.00 67 1011.0
20260502041749 55 299 1.7 2.6 0.00 0.00 0.00 67 1011.0
20260502041246 55 219 4.3 7.0 0.00 0.00 0.00 67 1011.2
20260502040743 55 173 2.6 2.6 0.00 0.00 0.00 68 1011.2
20260502040240 54 303 0.9 1.7 0.00 0.00 0.00 70 1011.1
20260502035735 54 176 3.5 3.5 0.00 0.00 0.00 70 1011.1
20260502035233 55 178 4.3 7.0 0.00 0.00 0.00 71 1011.1
20260502034730 55 141 4.3 6.1 0.00 0.00 0.00 70 1011.2
20260502034228 55 120 2.6 5.2 0.00 0.00 0.00 69 1010.8
20260502033726 55 279 2.6 3.5 0.00 0.00 0.00 69 1011.1
20260502033223 55 144 4.3 6.1 0.00 0.00 0.00 69 1011.0
20260502032720 55 326 1.7 1.7 0.00 0.00 0.00 70 1011.1
20260502032215 55 162 1.7 5.2 0.00 0.00 0.00 70 1010.9
20260502031714 55 311 0.0 0.9 0.00 0.00 0.00 71 1010.9
20260502031212 55 97 2.6 5.2 0.00 0.00 0.00 71 1010.9
20260502030710 55 356 7.0 8.7 0.00 0.00 0.00 71 1011.1
20260502030208 55 152 4.3 7.0 0.00 0.00 0.00 72 1011.2
20260502025705 55 143 3.5 7.8 0.00 0.00 0.00 72 1011.1
20260502025203 55 164 3.5 9.6 0.00 0.00 0.00 72 1011.2
20260502024700 55 295 2.6 3.5 0.00 0.00 0.00 73 1011.3
20260502024158 55 196 5.2 7.0 0.00 0.00 0.00 74 1011.4
20260502023656 54 200 4.3 6.1 0.00 0.00 0.00 75 1011.3
20260502023153 54 124 5.2 6.1 0.00 0.00 0.00 76 1011.1